SCP
0 0 0 0 0 0 0 0 0 0 0 0 0 0 0 0 0 0 0 0 0 0 0 0 0 0 0 0 0 0 0 0 0 0 0 0 0 0 0 0 0 0 0
0 0 0 0 0 0 0 0 0 0 0 0 0 0 0 0 0 0 0 0 0 0 0 0 0 0 0 0 0 0 0 0 0 0 0 0 0 0 0 0 0 0 0
0 0 0 0 0 0 0 0 0 0 0 0 0 0 0 0 0 0 0 0 0 0 0 0 0 0 0 0 0 0 0 0 0 0 0 0 0 0 0 0 0 0 0
0 0 0 0 0 0 0 0 0 0 0 0 0 0 0 0 0 0 0 0 0 0 0 0 0 0 0 0 0 0 0 0 0 0 0 0 0 0 0 0 0 0 0
0 0 0 0 0 0 0 0 0 0 0 0 0 0 0 0 0 0 0 0 0 0 0 0 0 0 0 0 0 0 0 0 0 0 0 0 0 0 0 0 0 0 0
0 0 0 0 0 0 0 0 0 0 0 0 0 0 0 0 0 0 0 0 0 0 0 0 0 0 0 0 0 0 0 0 0 0 0 0 0 0 0 0 0 0 0
0 0 0 0 0 0 0 0 0 0 0 0 0 0 0 0 0 0 0 0 0 0 0 0 0 0 0 0 0 0 0 0 0 0 0 0 0 0 0 0 0 0 0
0 0 0 0 0 0 0 0 0 0 0 0 0 0 0 0 0 0 0 0 0 0 0 0 0 0 0 0 0 0 0 0 0 0 0 0 0 0 0 0 0 0 0
0 0 0 0 0 0 0 0 0 0 0 0 0 0 0 0 0 0 0 0 0 0 0 0 0 0 0 0 0 0 0 0 0 0 0 0 0 0 0 0 0 0 0
0 0 0 0 0 0 0 0 0 0 0 0 0 0 0 0 0 0 0 0 0 0 0 0 0 0 0 0 0 0 0 0 0 0 0 0 0 0 0 0 0 0 0
0 0 0 0 0 0 0 0 0 0 0 0 0 0 0 0 0 0 0 0 0 0 0 0 0 0 0 0 0 0 0 0 0 0 0 0 0 0 0 0 0 0 0
0 0 0 0 0 0 0 0 0 0 0 0 0 0 0 0 0 0 0 0 0 0 0 0 0 0 0 0 0 0 0 0 0 0 0 0 0 0 0 0 0 0 0
0 0 0 0 0 0 0 0 0 0 0 0 0 0 0 0 0 0 0 0 0 0 0 0 0 0 0 0 0 0 0 0 0 0 0 0 0 0 0 0 0 0 0
0 0 0 0 0 0 0 0 0 0 0 0 0 0 0 0 0 0 0 0 0 0 0 0 0 0 0 0 0 0 0 0 0 0 0 0 0 0 0 0 0 0 0
0 0 0 0 0 0 0 0 0 0 0 0 0 0 0 0 0 0 0 0 0 0 0 0 0 0 0 0 0 0 0 0 0 0 0 0 0 0 0 0 0 0 0
0 0 0 0 0 0 0 0 0 0 0 0 0 0 0 0 0 0 0 0 0 0 0 0 0 0 0 0 0 0 0 0 0 0 0 0 0 0 0 0 0 0 0
0 0 0 0 0 0 0 0 0 0 0 0 0 0 0 0 0 0 0 0 0 0 0 0 0 0 0 0 0 0 0 0 0 0 0 0 0 0 0 0 0 0 0
0 0 0 0 0 0 0 0 0 0 0 0 0 0 0 0 0 0 0 0 0 0 0 0 0 0 0 0 0 0 0 0 0 0 0 0 0 0 0 0 0 0 0
0 0 0 0 0 0 0 0 0 0 0 0 0 0 0 0 0 0 0 0 0 0 0 0 0 0 0 0 0 0 0 0 0 0 0 0 0 0 0 0 0 0 0
0 0 0 0 0 0 0 0 0 0 0 0 0 0 0 0 0 0 0 0 0 0 0 0 0 0 0 0 0 0 0 0 0 0 0 0 0 0 0 0 0 0 0
0 0 0 0 0 0 0 0 0 0 0 0 0 0 0 0 0 0 0 0 0 0 0 0 0 0 0 0 0 0 0 0 0 0 0 0 0 0 0 0 0 0 0
0 0 0 0 0 0 0 0 0 0 0 0 0 0 0 0 0 0 0 0 0 0 0 0 0 0 0 0 0 0 0 0 0 0 0 0 0 0 0 0 0 0 0
0 0 0 0 0 0 0 0 0 0 0 0 0 0 0 0 0 0 0 0 0 0 0 0 0 0 0 0 0 0 0 0 0 0 0 0 0 0 0 0 0 0 0
0 0 0 0 0 0 0 0 0 0 0 0 0 0 0 0 0 0 0 0 0 0 0 0 0 0 0 0 0 0 0 0 0 0 0 0 0 0 0 0 0 0 0
0 0 0 0 0 0 0 0 0 0 0 0 0 0 0 0 0 0 0 0 0 0 0 0 0 0 0 0 0 0 0 0 0 0 0 0 0 0 0 0 0 0 0
0 0 0 0 0 0 0 0 0 0 0 0 0 0 0 0 0 0 0 0 0 0 0 0 0 0 0 0 0 0 0 0 0 0 0 0 0 0 0 0 0 0 0
Wind_Speed
2 3 5 8 8 9 10 10 11 11 11 11 12 12 13 13 13 13 13 13 14 14 14 15 15 15 15 15 16 16 16 16 16 16 15 14 15 15 15 15 12 9 15
4 3 6 8 9 10 11 11 11 12 11 12 12 12 13 13 13 13 14 13 14 14 14 14 14 14 15 15 15 16 16 16 16 15 14 12 13 15 15 14 13 9 14
5 3 5 8 9 10 11 11 12 12 12 12 12 12 13 13 13 14 14 14 14 14 14 14 14 14 14 15 15 15 16 15 15 14 12 7 8 14 14 14 14 14 14
6 4 4 9 10 11 11 12 12 12 12 12 12 12 13 13 13 14 14 14 14 14 14 14 14 14 14 15 15 15 15 15 14 12 7 6 6 13 14 14 14 14 14
6 4 5 10 11 11 11 12 12 12 12 12 12 12 12 13 13 13 14 14 14 14 14 14 14 14 14 14 15 15 15 15 14 10 6 6 5 12 14 14 14 14 14
6 4 5 10 11 11 11 12 12 12 12 12 12 12 12 13 13 13 13 13 14 14 14 14 13 14 14 14 15 15 15 14 11 6 6 6 5 12 13 13 13 13 13
6 4 5 10 11 11 11 12 12 12 12 12 12 12 12 12 12 12 12 13 13 13 13 13 13 14 14 14 15 15 14 13 8 6 6 5 7 12 13 12 12 13 13
6 5 5 10 10 10 11 11 11 11 11 11 12 12 12 12 12 12 12 12 12 13 13 13 13 13 14 14 14 15 14 12 9 7 5 5 9 11 12 12 12 12 12
6 5 4 5 6 9 10 10 11 10 10 11 11 11 11 11 11 11 11 12 12 12 13 13 13 13 13 13 14 14 14 14 7 5 6 4 9 11 11 11 11 11 11
5 5 4 5 4 4 5 9 10 10 10 10 11 11 11 11 10 11 10 11 11 12 12 13 13 13 13 13 13 13 13 10 6 6 4 5 11 11 11 11 11 11 11
5 4 4 5 4 4 4 7 7 8 9 9 8 10 9 5 5 6 8 10 10 11 11 12 12 12 12 12 13 12 9 4 5 4 4 8 11 11 11 11 11 11 11
7 6 5 5 5 4 4 4 3 4 5 5 4 5 4 4 4 6 9 10 10 10 10 11 12 11 8 5 7 9 4 5 4 4 5 11 11 11 12 11 11 11 10
7 7 5 6 5 5 4 3 2 2 3 4 5 4 4 3 3 4 3 4 5 6 5 6 6 4 4 4 4 4 4 4 3 3 5 10 10 10 11 11 11 10 10
7 7 6 6 6 5 4 3 3 2 2 3 3 4 3 3 3 2 2 3 3 2 3 3 3 4 4 5 5 5 5 4 3 3 5 10 10 10 10 9 9 9 9
8 7 7 6 7 6 5 4 4 3 3 3 3 3 4 3 3 2 2 2 3 3 3 3 3 4 4 4 4 5 5 5 5 4 4 9 10 10 10 9 9 8 8
9 8 7 7 7 6 5 4 4 3 3 3 3 3 4 3 3 3 3 3 3 2 2 3 3 3 3 3 4 4 4 4 4 5 4 6 10 10 9 9 9 8 8
9 8 8 8 7 7 6 5 4 4 3 3 3 3 4 4 4 3 3 2 2 2 3 3 4 3 3 3 4 4 3 4 4 4 4 4 4 8 9 9 9 9 8
8 8 8 7 7 7 5 5 4 4 3 3 3 3 4 4 5 4 3 2 2 2 2 3 3 3 3 3 3 3 3 3 4 4 4 4 3 4 6 9 9 9 9
8 9 8 8 8 7 6 4 4 4 3 2 3 3 3 4 5 4 3 2 2 2 2 2 2 2 3 2 2 2 2 2 2 3 4 4 4 4 4 6 8 8 8
6 7 8 8 8 7 5 4 3 3 3 2 2 3 3 3 4 4 3 3 2 2 2 2 2 2 2 2 2 3 2 2 2 3 3 3 4 5 4 5 4 5 8
5 7 8 8 8 7 5 5 4 3 2 2 2 3 3 4 4 4 3 3 2 2 2 2 2 3 2 2 2 2 3 2 2 2 2 3 4 4 4 5 4 3 4
7 7 8 8 8 8 6 4 3 4 2 2 2 2 3 4 4 4 4 3 2 2 3 2 2 2 1 1 2 2 1 2 2 2 2 2 3 3 4 5 4 4 3
7 8 7 8 8 7 6 5 4 3 2 2 2 2 2 3 3 4 4 4 3 3 3 2 2 3 2 0 1 2 2 1 1 2 2 2 2 2 3 3 3 4 4
7 6 6 7 7 7 7 7 7 5 4 3 3 3 2 3 3 4 4 4 4 3 3 3 2 2 3 2 0 1 1 2 2 1 2 1 2 2 2 2 3 3 3
6 6 6 6 6 6 7 7 7 5 3 3 3 4 3 2 3 3 4 4 4 3 4 3 2 2 2 2 1 1 1 1 1 2 2 2 2 2 1 2 2 2 3
3 4 5 6 6 5 6 6 7 6 6 5 5 4 3 2 2 3 4 4 4 4 4 4 3 3 2 2 1 1 2 2 1 1 2 2 3 3 3 2 1 2 2
Wind_Direction
209 236 173 133 125 118 113 105 99 95 93 90 87 85 84 82 80 81 79 79 76 75 74 72 70 70 69 69 69 69 67 65 63 63 61 64 70 74 74 73 71 67 74
171 191 152 132 125 118 113 107 101 98 95 93 89 86 85 84 81 81 79 79 78 76 74 74 72 70 69 69 70 69 68 65 62 59 55 56 64 70 73 72 71 71 73
142 156 140 127 120 115 111 106 102 99 98 94 91 89 88 87 84 81 80 79 79 78 75 73 71 69 70 70 70 69 67 64 62 57 52 46 60 69 72 71 69 69 71
138 141 135 129 122 118 113 106 102 98 98 96 94 91 89 89 87 84 81 79 80 80 77 75 72 70 71 72 71 69 66 63 60 57 50 43 52 69 71 71 69 67 69
130 129 139 129 123 119 115 111 106 100 97 95 94 92 90 88 88 86 84 81 80 79 77 75 72 70 70 70 71 69 67 63 58 52 46 42 47 68 70 70 68 68 68
125 120 136 127 125 121 117 113 107 102 99 96 94 92 90 88 87 86 85 83 82 80 78 76 73 72 70 70 70 69 66 62 54 46 43 43 50 67 69 70 69 68 68
124 119 131 126 125 123 119 112 107 103 100 98 94 91 89 88 88 86 85 83 82 80 78 76 75 74 71 69 69 68 64 60 56 46 42 42 57 68 68 70 71 70 69
127 119 123 130 124 122 117 112 108 105 101 98 95 92 90 87 88 88 85 83 83 82 79 76 76 76 74 71 71 68 63 59 56 49 40 42 63 68 68 68 70 71 70
121 117 112 115 122 124 118 113 109 105 101 98 95 90 87 85 83 86 86 85 84 83 80 77 76 76 74 73 72 70 64 57 48 41 42 42 62 68 68 66 69 70 70
116 116 112 106 102 105 112 112 108 103 99 96 93 88 83 81 79 80 79 84 84 83 81 78 76 75 72 71 70 68 62 54 41 36 31 50 60 66 67 66 66 68 70
128 125 123 115 106 99 101 110 107 105 102 96 92 88 80 66 65 69 72 76 77 79 79 78 76 72 68 67 68 64 58 47 41 37 30 53 61 64 66 65 63 63 69
157 151 141 134 127 115 109 100 93 88 89 81 78 80 73 68 68 71 72 71 73 72 72 74 73 67 60 51 58 57 48 42 43 34 41 53 61 63 63 62 61 59 64
161 154 149 145 135 125 115 108 91 88 88 86 87 86 84 74 70 63 62 59 56 61 57 60 59 50 51 50 51 49 45 46 36 28 35 50 56 61 62 61 58 57 59
159 162 152 147 140 132 125 120 112 105 100 96 97 98 93 85 74 68 65 56 48 48 58 55 56 53 56 55 58 55 49 48 36 24 32 45 50 56 59 60 58 55 54
165 165 161 152 148 143 135 134 125 123 114 110 103 99 98 103 99 80 71 63 58 54 56 59 59 59 59 57 58 61 55 49 42 33 24 40 47 51 54 54 54 53 53
173 170 163 157 151 145 140 138 136 132 124 117 111 108 104 108 107 97 81 69 61 60 59 65 67 66 58 58 60 59 56 50 46 41 32 31 40 44 48 50 49 47 48
175 169 165 159 149 146 141 137 135 135 131 126 118 111 108 113 111 104 95 78 63 62 67 67 62 62 61 55 56 53 57 54 50 43 35 30 26 35 42 46 46 45 43
167 165 165 160 151 148 143 137 133 130 128 124 120 113 114 116 113 107 101 87 76 70 66 76 67 69 59 55 53 42 42 50 52 48 42 35 30 26 29 40 43 41 38
172 166 164 158 156 152 143 134 127 126 125 126 121 118 121 121 117 113 108 100 94 87 72 80 68 81 80 63 62 55 43 44 44 49 47 42 39 36 25 29 37 38 35
169 165 163 157 155 149 139 126 118 113 122 127 123 124 125 126 120 115 112 105 106 105 82 79 86 72 90 80 72 50 32 29 50 53 48 41 39 38 33 30 24 25 29
159 162 165 161 160 155 154 154 152 155 149 134 138 136 132 133 132 127 126 121 114 114 110 106 108 96 71 79 79 48 19 24 49 52 48 49 36 30 30 28 23 21 10
170 169 169 168 168 168 166 159 153 145 150 152 147 140 140 144 146 143 139 140 134 124 116 116 120 119 106 75 101 99 43 3 8 20 36 55 38 25 25 21 17 17 5
179 180 177 172 169 166 154 139 128 112 108 131 160 164 163 153 151 148 150 149 149 147 153 157 152 135 151 109 85 123 141 191 311 336 7 31 27 25 10 2 7 1 358
189 181 173 169 164 163 157 157 160 167 171 181 178 171 163 155 158 161 160 161 160 163 165 177 166 157 152 162 106 62 126 149 157 305 322 345 351 357 346 348 345 340 346
180 173 169 161 160 163 166 166 168 169 163 149 155 161 168 173 172 171 173 171 170 172 173 176 175 164 162 170 170 145 89 66 138 169 263 304 322 306 313 314 312 313 324
161 164 163 163 164 164 168 170 174 170 163 160 168 174 179 183 184 182 180 180 180 178 178 182 185 180 178 174 172 173 169 176 188 177 216 267 286 292 295 284 276 292 306